Regional Weather Roundup
Issued by NWS

Home | Current Version | Previous Version | Text Only | Print | Product List | Glossary Off
Versions: 1 2 3 4 5 6 7 8 9 10 11 12 13 14 15 16 17 18 19 20 21 22 23 24 25 26 27 28 29 30 31 32 33 34 35 36 37 38 39 40 41 42 43 44 45 46 47 48 49 50

000
ASUS45 KBOU 281507
RWRCO

WEATHER ROUNDUP FOR COLORADO
NATIONAL WEATHER SERVICE DENVER/BOULDER CO
800 AM MST WED JAN 28 2015

NOTE: "FAIR" INDICATES FEW OR NO CLOUDS BELOW 12000 FEET WITH NO
SIGNIFICANT WEATHER AND/OR OBSTRUCTIONS TO VISIBILITY.

COZ001>005-013-030-031-281600-
...NORTHWEST COLORADO...

CITY           SKY/WX    TMP DP  RH WIND       PRES   REMARKS
CRAIG          PTCLDY    27  26  96 CALM      30.24R FOG
HAYDEN         PTCLDY    34  28  80 NE6       30.23R WCI  29
MEEKER         CLEAR     31  26  82 CALM      30.25R
MOUNT WERNER   NOT AVBL
STEAMBOAT SPGS MOCLDY    31  28  91 CALM      30.22S
WALDEN         CLOUDY    34  27  75 SW14      30.18S WCI  24
$$

COZ006>008-011-281600-
...WEST CENTRAL VALLEYS...

CITY           SKY/WX    TMP DP  RH WIND       PRES   REMARKS
GRAND JUNCTION CLEAR     30  27  88 E8        30.28R WCI  22
MONTROSE       PTCLDY    30  26  85 CALM      30.30R
EAGLE          PTCLDY    27  25  93 CALM      30.28R
RIFLE          MOCLDY    26  23  88 CALM      30.29R
DELTA          CLEAR     28  25  88 CALM      30.28S
NUCLA          PTCLDY    32  30  93 CALM      30.32S
$$

COZ017>023-064>068-281600-
...SOUTHWEST COLORADO...

CITY           SKY/WX    TMP DP  RH WIND       PRES   REMARKS
DURANGO        CLEAR     29  27  92 CALM      30.29R
CORTEZ         MOCLDY    29  27  92 E7        30.29S WCI  22
PAGOSA SPRINGS CLEAR     28  28  99 CALM      30.30R
TELLURIDE      NOT AVBL
WOLF CREEK PAS NOT AVBL
$$

COZ009-010-012-014-032>034-037-058>063-281600-
...CENTRAL COLORADO...

CITY           SKY/WX    TMP DP  RH WIND       PRES   REMARKS
ASPEN          PTCLDY    23  17  78 S5        30.25R WCI  17
BUENA VISTA    PTCLDY    38  19  46 W6        30.20R
COPPER MTN     PTCLDY    23  14  68 W21       30.25S WCI   8
BERTHOUD PASS  CLOUDY    14  10  85 NW40G55   30.14F HAZE    WCI  -9
COTTONWOOD PAS MOCLDY    34  18  51 NW7       30.23R WCI  28
GUNNISON       MOCLDY    10   7  85 CALM      30.33R
KREMMLING      MOCLDY    18  14  86 CALM      30.23R
LEADVILLE      MOCLDY    26  14  60 N6        30.24R WCI  19
MONARCH PASS   CLOUDY    21  19  93 MISG      30.36S
SALIDA         PTCLDY    42  24  47 SW21G28   30.27R
SUNLIGHT       CLOUDY    28  25  86 CALM        N/A
WILKERSON PASS CLEAR     25  12  58 W20G33    30.19S WCI  11
$$

COZ069>075-281600-
...SAN LUIS VALLEY/SANGRE DE CRISTO MOUNTAINS...

CITY           SKY/WX    TMP DP  RH WIND       PRES   REMARKS
ALAMOSA        PTCLDY    18  14  84 SW5       30.25S WCI  11
LA VETA PASS   NOT AVBL
SAGUACHE       CLOUDY    34  27  75 N3        30.27R
$$

COZ035-036-038>040-281600-
...NORTHERN COLORADO FRONT RANGE...

CITY           SKY/WX    TMP DP  RH WIND       PRES   REMARKS
DENVER INTL AP PTCLDY    52  18  26 W26G37    30.02F
DMNS CITY PARK   N/A     51  17  25 NW9G21    30.05R
AURORA         PTCLDY    45  20  37 W9        30.06R
FRONT RANGE AP PTCLDY    46  25  42 W15       30.05
ERIE MUNI ARPT CLEAR     50  19  28 W14       30.03S
BOULDER MUN AP CLEAR     52  19  28 W16G30    30.03S
CENTENNIAL     PTCLDY    38  24  57 E3        30.07R
BROOMFIELD     PTCLDY    50  19  29 W22G30    30.06S
FORT COLLINS   CLEAR     48  23  37 NW9       30.04R
LONGMONT       CLEAR     49  21  33 SE3       30.04R
$$

COZ041-046-047-076>085-087-088-281600-
...PIKES PEAK/PALMER DIVIDE AND SOUTHERN FOOTHILLS...

CITY           SKY/WX    TMP DP  RH WIND       PRES   REMARKS
COLO. SPRINGS  PTCLDY    48  18  30 NW15      30.08R
A. F. ACADEMY  CLEAR     35  20  54 N10       30.10R WCI  28
ELLICOTT       PTCLDY   N/A N/A N/A W12       30.07R
FALCON         PTCLDY    45  17  32 NW21G33   30.09R
FORT CARSON    PTCLDY    40  22  48 NW6       30.05R
LIMON          MOCLDY    34  24  67 W12       30.04R WCI  25
MONUMENT HILL  PTCLDY    36  19  51 NW9       30.10R
TRINIDAD       CLOUDY    39  28  64 E5        30.09R
$$

COZ042>045-048>051-090-091-281600-
...NORTHEAST COLORADO...

CITY           SKY/WX    TMP DP  RH WIND       PRES   REMARKS
GREELEY ARPT   PTCLDY    41  27  56 NW12      30.02R
AKRON          MOCLDY    40  30  67 W15       29.99S
BURLINGTON     CLOUDY    40  29  64 W9        29.99R
WRAY           MOCLDY    37  32  82 SW7       29.96S
STERLING       MOCLDY    36  32  87 SW6       29.97S
HOLYOKE        MOCLDY    52  32  46 NW15G21   29.94S
FORT MORGAN    MOCLDY    32  28  84 W5        30.01R WCI  27
$$

COZ086-089-092>099-281600-
...SOUTHEAST COLORADO...

CITY           SKY/WX    TMP DP  RH WIND       PRES   REMARKS
PUEBLO         PTCLDY    54  20  26 NW29      30.00S
LA JUNTA       CLOUDY    43  29  57 W9        30.02R
LAMAR          CLOUDY    40  30  67 MISG      30.00S
SPRINGFIELD      N/A     48  28  46 NW12      30.01S
$$


USA.gov is the U.S. government's official web portal to all federal, state and local government web resources and services.